Location: Killarney Provincial Park Observatory
(46.0124°N, 81.4000°W)
Time: 12:45:20
(UTC-04:00)

Iridium 22 - Visible Passes

Search period start: 25 July 2017 00:00
Search period end: 04 August 2017 00:00
Orbit: 776 x 779 km, 86.4° (Epoch: 25 July)

Date Brightness Start Highest point End Pass type
(mag) Time Alt. Az. Time Alt. Az. Time Alt. Az.
25 Jul 8.5 23:08:41 10° W 23:10:20 11° WNW 23:11:59 10° NW visible
26 Jul 8.2 22:32:36 10° WSW 22:36:22 20° WNW 22:40:10 10° NNW visible
27 Jul 7.3 21:57:51 10° SW 22:02:33 33° WNW 22:07:17 10° NNW visible
28 Jul 6.3 21:23:44 10° SSW 21:28:51 59° W 21:34:02 10° N visible
29 Jul 8.4 22:33:56 10° WSW 22:36:43 14° WNW 22:39:30 10° NW visible
30 Jul 8.0 21:58:35 10° SW 22:02:48 24° WNW 22:07:02 10° NNW visible
31 Jul 7.0 21:24:07 10° SSW 21:29:02 42° W 21:33:59 10° N visible
02 Aug 8.4 21:59:38 10° WSW 22:03:07 18° WNW 22:06:37 10° NNW visible
03 Aug 7.7 21:24:43 10° SW 21:29:16 30° WNW 21:33:51 10° NNW visible
